Adana Incirlik Air Force Base, Turkey

10:22 AM EEST on July 25, 2016 (GMT +0300)
Incirlik Air Base

Weather History for LTAG - October, 2012

Change the Weather History Date:

Friday, October 19, 2012

  Actual Average Record
Temperature  
Mean Temperature 80 °F -  
Max Temperature 94 °F 76 °F 94 °F (2012)
Min Temperature 65 °F 55 °F 50 °F (2005)
Cooling Degree Days 14    
Growing Degree Days 30 (Base 50)    
Moisture  
Dew Point 43 °F    
Average Humidity 32    
Maximum Humidity 68    
Minimum Humidity 5    
Precipitation  
Precipitation 0.00 in - - ()
Sea Level Pressure  
Sea Level Pressure 29.89 in    
Wind  
Wind Speed 5 mph ()    
Max Wind Speed 16 mph    
Max Gust Speed -    
Visibility 6.4 miles    
Events      
Averages and records for this station are not official NWS values.
T = Trace of Precipitation, MM = Missing Value Source: Averaged Metar Reports

Daily Weather History Graph

Daily Weather History Graph

Search for Another Location

Airport or City:

Trip Planner

Search our weather history database for the weather conditions in past years. The results will help you decide how hot, cold, wet, or windy it might be!

Date:

Astronomy

Oct. 19, 2012 Rise Set
Actual Time 6:49 AM EEST 5:56 PM EEST
Civil Twilight 6:23 AM EEST 6:22 PM EEST
Nautical Twilight 5:53 AM EEST 6:52 PM EEST
Astronomical Twilight 5:23 AM EEST 7:22 PM EEST
Moon 11:07 AM EEST (10/19) 9:16 PM EEST (10/19)
Length of Visible Light 11h 58m
Length of Day
11h 06m
Waxing Crescent, 20% of the Moon is Illuminated
Oct 19
Waxing Crescent
Oct 22
First Quarter
Oct 29
Full
Nov 7
Last Quarter
Nov 14
New

Hourly Weather History & Observations

Time (EEST) Temp. Dew Point Humidity Pressure Visibility Wind Dir Wind Speed Gust Speed Precip Events Conditions
12:20 AM 75.2 °F 41.0 °F 29% 29.92 in - ENE 1.2 mph - N/A   Clear
12:50 AM 73.4 °F 42.8 °F 33% 29.92 in - SW 4.6 mph - N/A   Clear
1:20 AM 75.2 °F 42.8 °F 31% 29.92 in - NNW 3.5 mph - N/A   Clear
1:50 AM 71.6 °F 42.8 °F 35% 29.89 in - SSE 3.5 mph - N/A   Clear
2:20 AM 69.8 °F 50.0 °F 49% 29.89 in - NNE 9.2 mph - N/A   Clear
2:50 AM 68.0 °F 51.8 °F 56% 29.89 in - NW 3.5 mph - N/A   Clear
3:20 AM 68.0 °F 51.8 °F 56% 29.89 in - WSW 3.5 mph - N/A   Clear
3:50 AM 68.0 °F 51.8 °F 56% 29.89 in - North 9.2 mph - N/A   Clear
4:20 AM 66.2 °F 53.6 °F 64% 29.89 in - NW 4.6 mph - N/A   Clear
4:50 AM 66.2 °F 53.6 °F 64% 29.89 in - West 4.6 mph - N/A   Clear
5:20 AM 66.2 °F 55.4 °F 68% 29.89 in - SSW 3.5 mph - N/A   Clear
5:50 AM 68.0 °F 55.4 °F 64% 29.89 in - North 3.5 mph - N/A   Clear
6:20 AM 69.8 °F 50.0 °F 49% 29.89 in - NW 2.3 mph - N/A   Clear
6:50 AM 69.8 °F 46.4 °F 43% 29.89 in - North 4.6 mph - N/A   Clear
7:20 AM 71.6 °F 46.4 °F 41% 29.89 in - NNE 4.6 mph - N/A   Clear
7:50 AM 71.6 °F 50.0 °F 46% 29.92 in - NNW 5.8 mph - N/A   Clear
8:20 AM 77.0 °F 48.2 °F 36% 29.92 in - WNW 5.8 mph - N/A   Clear
8:50 AM 80.6 °F 46.4 °F 30% 29.92 in - North 5.8 mph - N/A   Clear
9:00 AM 80 °F 47 °F 21% 29.93 in 6 mi North 5.8 mph - -  
9:20 AM 84.2 °F 44.6 °F 25% 29.92 in - NNE 9.2 mph - N/A   Clear
9:50 AM 86.0 °F 44.6 °F 23% 29.92 in - NNE 10.4 mph - N/A   Clear
10:20 AM 89.6 °F 42.8 °F 20% 29.92 in - North 16.1 mph - N/A   Clear
10:50 AM 89.6 °F 41.0 °F 18% 29.92 in - NNE 13.8 mph - N/A   Clear
11:20 AM 91.4 °F 39.2 °F 16% 29.92 in - NE 11.5 mph - N/A   Clear
11:50 AM 91.4 °F 37.4 °F 15% 29.92 in - NE 13.8 mph - N/A   Clear
12:20 PM 91.4 °F 35.6 °F 14% 29.89 in - NE 9.2 mph - N/A   Clear
12:50 PM 93.2 °F 35.6 °F 13% 29.89 in 6.2 mi NE 8.1 mph - N/A   Partly Cloudy
1:20 PM 93.2 °F 33.8 °F 12% 29.89 in 6.2 mi East 4.6 mph - N/A   Partly Cloudy
1:50 PM 93.2 °F 33.8 °F 12% 29.86 in 6.2 mi ENE 2.3 mph - N/A   Partly Cloudy
2:20 PM 93.2 °F 32.0 °F 11% 29.86 in 6.2 mi South 2.3 mph - N/A   Partly Cloudy
2:50 PM 93.2 °F 32.0 °F 11% 29.86 in 6.2 mi ENE 4.6 mph - N/A   Partly Cloudy
3:00 PM 93 °F 32 °F 5% 29.86 in 12 mi ENE 4.6 mph - -   Scattered Clouds
3:20 PM 93.2 °F 30.2 °F 11% 29.86 in 6.2 mi East 3.5 mph - N/A   Partly Cloudy
3:50 PM 93.2 °F 30.2 °F 11% 29.86 in 6.2 mi South 4.6 mph - N/A   Partly Cloudy
4:20 PM 93.2 °F 30.2 °F 11% 29.86 in 6.2 mi ESE 1.2 mph - N/A   Partly Cloudy
4:50 PM 91.4 °F 32.0 °F 12% 29.86 in 6.2 mi South 2.3 mph - N/A   Partly Cloudy
5:20 PM 89.6 °F 33.8 °F 14% 29.86 in 6.2 mi SW 3.5 mph - N/A   Partly Cloudy
5:50 PM 86.0 °F 37.4 °F 18% 29.86 in 6.2 mi WSW 3.5 mph - N/A   Partly Cloudy
6:20 PM 77.0 °F 48.2 °F 36% 29.86 in 6.2 mi NE 6.9 mph - N/A   Partly Cloudy
6:50 PM 71.6 °F 46.4 °F 41% 29.86 in 6.2 mi North 5.8 mph - N/A   Partly Cloudy
7:20 PM 75.2 °F 42.8 °F 31% 29.86 in 6.2 mi North 8.1 mph - N/A   Partly Cloudy
7:50 PM 71.6 °F 44.6 °F 38% 29.86 in 6.2 mi North 9.2 mph - N/A   Partly Cloudy
8:20 PM 69.8 °F 44.6 °F 40% 29.86 in 6.2 mi North 10.4 mph - N/A   Partly Cloudy
8:50 PM 71.6 °F 42.8 °F 35% 29.86 in 6.2 mi North 9.2 mph - N/A   Partly Cloudy
9:00 PM 71 °F 43 °F 25% 29.87 in 6 mi North 9.2 mph - -   Scattered Clouds
9:20 PM 71.6 °F 42.8 °F 35% 29.89 in 6.2 mi North 8.1 mph - N/A   Partly Cloudy
9:50 PM 73.4 °F 41.0 °F 31% 29.89 in 6.2 mi West 3.5 mph - N/A   Partly Cloudy
10:20 PM 71.6 °F 44.6 °F 38% 29.89 in 6.2 mi North 5.8 mph - N/A   Partly Cloudy
10:50 PM 69.8 °F 42.8 °F 38% 29.89 in 6.2 mi NNE 3.5 mph - N/A   Partly Cloudy
11:20 PM 68.0 °F 44.6 °F 43% 29.86 in 6.2 mi North 3.5 mph - N/A   Partly Cloudy
11:50 PM 69.8 °F 44.6 °F 40% 29.86 in 6.2 mi NE 1.2 mph - N/A   Partly Cloudy